| time (UTC) | temp F | wind direction | speed knots | gust knots | rain 1hr in | rain 24hr in | rain mn in | humidity % | barometer mb |
| 20260504231341 | 65 | 186 | 0.0 | 0.0 | 0.00 | 0.00 | 0.00 | 46 | 1035.2 |
| 20260504230837 | 66 | 114 | 1.7 | 1.7 | 0.00 | 0.00 | 0.00 | 44 | 1035.2 |
| 20260504230335 | 66 | 190 | 0.9 | 1.7 | 0.00 | 0.00 | 0.00 | 44 | 1035.0 |
| 20260504225833 | 66 | 169 | 3.5 | 6.1 | 0.00 | 0.00 | 0.00 | 44 | 1034.8 |
| 20260504225329 | 66 | 186 | 0.0 | 0.0 | 0.00 | 0.00 | 0.00 | 44 | 1034.8 |
| 20260504224827 | 67 | 321 | 2.6 | 2.6 | 0.00 | 0.00 | 0.00 | 41 | 1034.7 |
| 20260504224324 | 67 | 197 | 0.0 | 0.0 | 0.00 | 0.00 | 0.00 | 43 | 1034.4 |
| 20260504223820 | 67 | 199 | 0.0 | 0.0 | 0.00 | 0.00 | 0.00 | 41 | 1034.6 |
| 20260504223316 | 67 | 190 | 0.0 | 0.0 | 0.00 | 0.00 | 0.00 | 41 | 1034.4 |
| 20260504222813 | 68 | 205 | 0.9 | 1.7 | 0.00 | 0.00 | 0.00 | 41 | 1034.6 |
| 20260504222309 | 68 | 222 | 0.0 | 0.0 | 0.00 | 0.00 | 0.00 | 41 | 1034.5 |
| 20260504221808 | 68 | 189 | 0.0 | 0.0 | 0.00 | 0.00 | 0.00 | 40 | 1034.5 |
| 20260504221304 | 68 | 193 | 0.0 | 0.0 | 0.00 | 0.00 | 0.00 | 42 | 1034.5 |
| 20260504220801 | 68 | 161 | 1.7 | 1.7 | 0.00 | 0.00 | 0.00 | 43 | 1034.5 |
| 20260504220258 | 68 | 187 | 0.0 | 0.9 | 0.00 | 0.00 | 0.00 | 39 | 1034.4 |
| 20260504215755 | 68 | 216 | 0.0 | 0.0 | 0.00 | 0.00 | 0.00 | 41 | 1034.7 |
| 20260504215252 | 68 | 190 | 0.0 | 0.0 | 0.00 | 0.00 | 0.00 | 42 | 1034.5 |
| 20260504214747 | 69 | 210 | 2.6 | 2.6 | 0.00 | 0.00 | 0.00 | 39 | 1034.6 |
| 20260504214244 | 69 | 202 | 0.0 | 0.0 | 0.00 | 0.00 | 0.00 | 38 | 1034.7 |
| 20260504213741 | 69 | 198 | 2.6 | 4.3 | 0.00 | 0.00 | 0.00 | 38 | 1034.6 |
| 20260504213237 | 70 | 238 | 1.7 | 1.7 | 0.00 | 0.00 | 0.00 | 37 | 1034.7 |
| 20260504212735 | 69 | 195 | 0.0 | 0.0 | 0.00 | 0.00 | 0.00 | 38 | 1034.3 |
| 20260504212231 | 70 | 167 | 1.7 | 1.7 | 0.00 | 0.00 | 0.00 | 38 | 1034.4 |
| 20260504211729 | 70 | 190 | 0.0 | 0.0 | 0.00 | 0.00 | 0.00 | 37 | 1034.6 |
| 20260504211224 | 70 | 222 | 0.9 | 0.9 | 0.00 | 0.00 | 0.00 | 37 | 1034.6 |
| 20260504210722 | 69 | 218 | 0.0 | 0.9 | 0.00 | 0.00 | 0.00 | 37 | 1034.8 |
| 20260504210214 | 70 | 167 | 0.9 | 0.9 | 0.00 | 0.00 | 0.00 | 37 | 1034.7 |
| 20260504205711 | 69 | 201 | 1.7 | 2.6 | 0.00 | 0.00 | 0.00 | 38 | 1034.6 |
| 20260504205208 | 69 | 194 | 0.9 | 0.9 | 0.00 | 0.00 | 0.00 | 38 | 1034.6 |
| 20260504204706 | 70 | 168 | 0.9 | 1.7 | 0.00 | 0.00 | 0.00 | 37 | 1034.6 |
| 20260504204205 | 71 | 213 | 0.9 | 0.9 | 0.00 | 0.00 | 0.00 | 35 | 1034.5 |
| 20260504203703 | 70 | 194 | 2.6 | 2.6 | 0.00 | 0.00 | 0.00 | 37 | 1034.3 |
| 20260504203201 | 71 | 203 | 0.9 | 0.9 | 0.00 | 0.00 | 0.00 | 35 | 1034.6 |
| 20260504202700 | 71 | 134 | 2.6 | 9.6 | 0.00 | 0.00 | 0.00 | 36 | 1034.5 |
| 20260504202158 | 73 | 219 | 0.9 | 1.7 | 0.00 | 0.00 | 0.00 | 35 | 1034.6 |
| 20260504201654 | 71 | 210 | 0.9 | 0.9 | 0.00 | 0.00 | 0.00 | 35 | 1034.6 |
| 20260504201152 | 70 | 217 | 0.0 | 0.0 | 0.00 | 0.00 | 0.00 | 36 | 1034.7 |
| 20260504200649 | 70 | 204 | 0.0 | 0.0 | 0.00 | 0.00 | 0.00 | 38 | 1034.7 |
| 20260504200146 | 71 | 218 | 0.0 | 0.0 | 0.00 | 0.00 | 0.00 | 37 | 1034.7 |
| 20260504195642 | 71 | 8 | 0.0 | 0.0 | 0.00 | 0.00 | 0.00 | 35 | 1034.5 |
| 20260504195138 | 70 | 191 | 0.0 | 0.0 | 0.00 | 0.00 | 0.00 | 37 | 1034.6 |
| 20260504194635 | 70 | 212 | 1.7 | 2.6 | 0.00 | 0.00 | 0.00 | 36 | 1034.7 |
| 20260504194131 | 70 | 284 | 0.9 | 1.7 | 0.00 | 0.00 | 0.00 | 36 | 1034.6 |
| 20260504193627 | 69 | 216 | 0.0 | 0.0 | 0.00 | 0.00 | 0.00 | 37 | 1034.8 |
| 20260504193126 | 70 | 224 | 0.0 | 0.9 | 0.00 | 0.00 | 0.00 | 36 | 1034.7 |
| 20260504192623 | 69 | 310 | 3.5 | 5.2 | 0.00 | 0.00 | 0.00 | 36 | 1034.8 |
| 20260504192121 | 69 | 201 | 0.0 | 0.0 | 0.00 | 0.00 | 0.00 | 39 | 1034.9 |
| 20260504191620 | 71 | 342 | 2.6 | 2.6 | 0.00 | 0.00 | 0.00 | 36 | 1034.7 |
| 20260504191115 | 71 | 305 | 2.6 | 2.6 | 0.00 | 0.00 | 0.00 | 35 | 1034.6 |
| 20260504190612 | 72 | 255 | 2.6 | 2.6 | 0.00 | 0.00 | 0.00 | 34 | 1034.7 |
| 20260504190108 | 72 | 310 | 1.7 | 1.7 | 0.00 | 0.00 | 0.00 | 34 | 1034.5 |
| 20260504185605 | 72 | 262 | 0.0 | 1.7 | 0.00 | 0.00 | 0.00 | 35 | 1034.8 |
| 20260504185101 | 72 | 195 | 0.9 | 1.7 | 0.00 | 0.00 | 0.00 | 35 | 1034.6 |
| 20260504184557 | 73 | 247 | 0.0 | 1.7 | 0.00 | 0.00 | 0.00 | 36 | 1034.6 |
| 20260504184052 | 73 | 251 | 0.0 | 0.0 | 0.00 | 0.00 | 0.00 | 34 | 1034.5 |
| 20260504183550 | 71 | 185 | 0.0 | 0.0 | 0.00 | 0.00 | 0.00 | 36 | 1034.8 |
| 20260504183048 | 69 | 327 | 3.5 | 5.2 | 0.00 | 0.00 | 0.00 | 36 | 1034.9 |
| 20260504182544 | 68 | 215 | 0.9 | 4.3 | 0.00 | 0.00 | 0.00 | 37 | 1034.9 |
| 20260504182042 | 70 | 131 | 1.7 | 2.6 | 0.00 | 0.00 | 0.00 | 37 | 1035.0 |
| 20260504181539 | 70 | 143 | 0.9 | 1.7 | 0.00 | 0.00 | 0.00 | 36 | 1034.8 |
| 20260504181037 | 69 | 237 | 1.7 | 2.6 | 0.00 | 0.00 | 0.00 | 34 | 1034.9 |
| 20260504180536 | 69 | 212 | 0.9 | 1.7 | 0.00 | 0.00 | 0.00 | 37 | 1034.9 |
| 20260504180034 | 67 | 224 | 1.7 | 6.1 | 0.00 | 0.00 | 0.00 | 38 | 1034.9 |
| 20260504175531 | 68 | 282 | 1.7 | 2.6 | 0.00 | 0.00 | 0.00 | 38 | 1035.0 |
| 20260504175028 | 68 | 201 | 0.0 | 0.0 | 0.00 | 0.00 | 0.00 | 37 | 1035.0 |
| 20260504174526 | 68 | 219 | 0.0 | 0.0 | 0.00 | 0.00 | 0.00 | 36 | 1035.0 |
| 20260504174022 | 69 | 25 | 0.9 | 1.7 | 0.00 | 0.00 | 0.00 | 36 | 1035.1 |
| 20260504173519 | 71 | 229 | 0.9 | 1.7 | 0.00 | 0.00 | 0.00 | 35 | 1035.1 |
| 20260504173017 | 70 | 226 | 0.0 | 0.0 | 0.00 | 0.00 | 0.00 | 35 | 1034.8 |
| 20260504172513 | 68 | 196 | 0.0 | 0.0 | 0.00 | 0.00 | 0.00 | 38 | 1035.1 |
| 20260504172009 | 70 | 256 | 0.9 | 0.9 | 0.00 | 0.00 | 0.00 | 36 | 1034.9 |
| 20260504171506 | 69 | 242 | 1.7 | 2.6 | 0.00 | 0.00 | 0.00 | 37 | 1035.0 |
| 20260504171003 | 69 | 202 | 1.7 | 4.3 | 0.00 | 0.00 | 0.00 | 37 | 1034.9 |
| 20260504170459 | 70 | 227 | 1.7 | 1.7 | 0.00 | 0.00 | 0.00 | 37 | 1035.0 |
| 20260504160419 | 67 | 201 | 0.9 | 1.7 | 0.00 | 0.00 | 0.00 | 38 | 1035.3 |
| 20260504150843 | 64 | 199 | 0.9 | 1.7 | 0.00 | 0.00 | 0.00 | 42 | 1036.1 |
| 20260504150339 | 65 | 320 | 3.5 | 6.1 | 0.00 | 0.00 | 0.00 | 41 | 1035.9 |
| 20260504141310 | 62 | 255 | 0.0 | 0.0 | 0.00 | 0.00 | 0.00 | 46 | 1036.7 |
| 20260504140806 | 61 | 167 | 0.9 | 1.7 | 0.00 | 0.00 | 0.00 | 46 | 1036.8 |
| 20260504140302 | 61 | 166 | 1.7 | 5.2 | 0.00 | 0.00 | 0.00 | 48 | 1037.1 |
| 20260504130731 | 57 | 192 | 0.9 | 0.9 | 0.00 | 0.00 | 0.00 | 55 | 1037.5 |
| 20260504130226 | 56 | 209 | 1.7 | 2.6 | 0.00 | 0.00 | 0.00 | 56 | 1037.6 |
| 20260504120150 | 50 | 190 | 0.0 | 0.9 | 0.00 | 0.00 | 0.00 | 68 | 1037.9 |
| 20260504110618 | 47 | 206 | 0.0 | 0.0 | 0.00 | 0.00 | 0.00 | 72 | 1038.2 |
| 20260504110114 | 46 | 216 | 0.0 | 0.0 | 0.00 | 0.00 | 0.00 | 72 | 1038.3 |
| 20260504100539 | 45 | 232 | 0.0 | 0.0 | 0.00 | 0.00 | 0.00 | 74 | 1037.9 |
| 20260504081933 | 45 | 198 | 0.0 | 0.0 | 0.00 | 0.00 | 0.00 | 70 | 1037.8 |
| 20260504081430 | 45 | 196 | 0.9 | 1.7 | 0.00 | 0.00 | 0.00 | 68 | 1038.0 |
| 20260504080926 | 45 | 190 | 0.0 | 0.0 | 0.00 | 0.00 | 0.00 | 72 | 1037.7 |
| 20260504080423 | 45 | 193 | 0.0 | 0.0 | 0.00 | 0.00 | 0.00 | 71 | 1037.9 |
| 20260504070351 | 44 | 194 | 0.0 | 0.0 | 0.00 | 0.00 | 0.00 | 69 | 1038.1 |
| 20260504050738 | 36 | 189 | 0.0 | 0.0 | 0.00 | 0.00 | 0.00 | 92 | 1037.9 |
| 20260504050235 | 36 | 161 | 0.0 | 0.0 | 0.00 | 0.00 | 0.00 | 92 | 1037.7 |
| 20260504045732 | 36 | 184 | 0.0 | 0.0 | 0.00 | 0.00 | 0.00 | 92 | 1037.8 |
| 20260504045227 | 36 | 178 | 0.0 | 0.0 | 0.00 | 0.00 | 0.00 | 92 | 1037.8 |
| 20260504044725 | 36 | 175 | 0.0 | 0.0 | 0.00 | 0.00 | 0.00 | 92 | 1037.9 |
| 20260504044222 | 36 | 183 | 0.0 | 0.0 | 0.00 | 0.00 | 0.00 | 92 | 1037.9 |
| 20260504043719 | 36 | 168 | 0.0 | 0.0 | 0.00 | 0.00 | 0.00 | 92 | 1037.8 |
| 20260504043216 | 36 | 186 | 0.0 | 0.0 | 0.00 | 0.00 | 0.00 | 91 | 1037.9 |
| 20260504042714 | 36 | 184 | 0.0 | 0.0 | 0.00 | 0.00 | 0.00 | 90 | 1037.8 |
| 20260504042210 | 36 | 190 | 0.0 | 0.0 | 0.00 | 0.00 | 0.00 | 89 | 1038.0 |
| 20260504041706 | 36 | 183 | 0.0 | 0.0 | 0.00 | 0.00 | 0.00 | 88 | 1037.9 |
| 20260504041202 | 36 | 183 | 0.0 | 0.0 | 0.00 | 0.00 | 0.00 | 88 | 1037.6 |
| 20260504040659 | 36 | 192 | 0.0 | 0.0 | 0.00 | 0.00 | 0.00 | 87 | 1037.7 |
| 20260504040156 | 36 | 185 | 0.0 | 0.0 | 0.00 | 0.00 | 0.00 | 87 | 1037.7 |
| 20260504035652 | 36 | 173 | 0.0 | 0.0 | 0.00 | 0.01 | 0.01 | 86 | 1037.7 |
| 20260504035150 | 37 | 187 | 0.0 | 0.0 | 0.00 | 0.01 | 0.01 | 85 | 1037.6 |
| 20260504034647 | 37 | 189 | 0.0 | 0.0 | 0.00 | 0.01 | 0.01 | 84 | 1037.6 |
| 20260504034144 | 37 | 186 | 0.0 | 0.0 | 0.00 | 0.01 | 0.01 | 84 | 1037.7 |
| 20260504033641 | 37 | 183 | 0.0 | 0.0 | 0.00 | 0.01 | 0.01 | 83 | 1037.5 |
| 20260504033139 | 38 | 192 | 0.0 | 0.0 | 0.00 | 0.01 | 0.01 | 81 | 1037.5 |
| 20260504032635 | 37 | 188 | 0.0 | 0.0 | 0.00 | 0.01 | 0.01 | 82 | 1037.8 |
| 20260504032132 | 37 | 188 | 0.0 | 0.0 | 0.00 | 0.01 | 0.01 | 81 | 1037.3 |
| 20260504031630 | 37 | 176 | 0.0 | 0.0 | 0.00 | 0.01 | 0.01 | 81 | 1037.6 |
| 20260504031126 | 37 | 175 | 0.0 | 0.0 | 0.00 | 0.01 | 0.01 | 80 | 1037.5 |
| 20260504030623 | 38 | 191 | 0.0 | 0.0 | 0.00 | 0.01 | 0.01 | 80 | 1037.3 |
| 20260504030120 | 37 | 129 | 0.0 | 0.0 | 0.00 | 0.01 | 0.01 | 78 | 1037.5 |
| 20260504025616 | 38 | 183 | 0.0 | 0.0 | 0.00 | 0.01 | 0.01 | 78 | 1037.5 |
| 20260504025113 | 38 | 183 | 0.0 | 0.0 | 0.00 | 0.01 | 0.01 | 79 | 1037.5 |
| 20260504024611 | 38 | 188 | 0.0 | 0.0 | 0.00 | 0.01 | 0.01 | 83 | 1037.7 |
| 20260504024107 | 38 | 188 | 0.0 | 0.0 | 0.00 | 0.01 | 0.01 | 78 | 1037.7 |
| 20260504023604 | 38 | 189 | 0.0 | 0.0 | 0.00 | 0.01 | 0.01 | 77 | 1037.7 |
| 20260504023059 | 39 | 188 | 0.0 | 0.0 | 0.00 | 0.01 | 0.01 | 76 | 1037.5 |
| 20260504022556 | 39 | 184 | 0.0 | 0.0 | 0.00 | 0.01 | 0.01 | 77 | 1037.6 |
| 20260504022052 | 39 | 185 | 0.0 | 0.0 | 0.00 | 0.01 | 0.01 | 76 | 1037.6 |
| 20260504021550 | 39 | 185 | 0.0 | 0.0 | 0.00 | 0.01 | 0.01 | 76 | 1037.4 |
| 20260504021046 | 40 | 188 | 0.0 | 0.0 | 0.00 | 0.01 | 0.01 | 75 | 1037.6 |
| 20260504020543 | 40 | 187 | 0.0 | 0.0 | 0.00 | 0.01 | 0.01 | 74 | 1037.6 |
| 20260504020040 | 39 | 189 | 0.0 | 0.0 | 0.00 | 0.01 | 0.01 | 72 | 1037.4 |
| 20260504015537 | 40 | 185 | 0.0 | 0.0 | 0.00 | 0.01 | 0.01 | 73 | 1037.4 |
| 20260504015032 | 39 | 184 | 0.0 | 0.0 | 0.00 | 0.01 | 0.01 | 74 | 1037.6 |
| 20260504014528 | 39 | 187 | 0.0 | 0.0 | 0.00 | 0.01 | 0.01 | 74 | 1037.7 |
| 20260504014026 | 39 | 183 | 0.0 | 0.0 | 0.00 | 0.01 | 0.01 | 75 | 1037.5 |
| 20260504013524 | 39 | 186 | 0.0 | 0.0 | 0.00 | 0.01 | 0.01 | 75 | 1037.4 |
| 20260504013020 | 39 | 185 | 0.0 | 0.0 | 0.00 | 0.01 | 0.01 | 75 | 1037.6 |
| 20260504012518 | 39 | 188 | 0.0 | 0.0 | 0.00 | 0.01 | 0.01 | 75 | 1037.4 |
| 20260504012016 | 40 | 188 | 0.0 | 0.0 | 0.00 | 0.01 | 0.01 | 74 | 1037.5 |
| 20260504011512 | 40 | 188 | 0.0 | 0.0 | 0.00 | 0.01 | 0.01 | 74 | 1037.4 |
| 20260504011008 | 40 | 189 | 0.0 | 0.0 | 0.00 | 0.01 | 0.01 | 73 | 1037.0 |
| 20260504010504 | 40 | 189 | 0.0 | 0.0 | 0.00 | 0.01 | 0.01 | 71 | 1037.4 |
| 20260504010000 | 40 | 189 | 0.0 | 0.0 | 0.00 | 0.01 | 0.01 | 71 | 1037.1 |
| 20260504005457 | 41 | 188 | 0.0 | 0.0 | 0.00 | 0.01 | 0.01 | 72 | 1037.1 |
| 20260504004954 | 41 | 188 | 0.0 | 0.0 | 0.00 | 0.01 | 0.01 | 72 | 1036.8 |
| 20260504004452 | 41 | 188 | 0.0 | 0.0 | 0.00 | 0.01 | 0.01 | 72 | 1036.7 |
| 20260504003949 | 41 | 190 | 0.0 | 0.0 | 0.00 | 0.01 | 0.01 | 72 | 1036.8 |
| 20260504003445 | 42 | 193 | 0.0 | 0.0 | 0.00 | 0.01 | 0.01 | 70 | 1036.9 |
| 20260504002942 | 42 | 185 | 0.0 | 0.0 | 0.00 | 0.01 | 0.01 | 70 | 1036.6 |
| 20260504002439 | 43 | 188 | 0.0 | 0.0 | 0.00 | 0.01 | 0.01 | 67 | 1036.8 |
| 20260504001936 | 43 | 183 | 0.0 | 0.0 | 0.00 | 0.01 | 0.01 | 66 | 1036.8 |
| 20260504001433 | 44 | 191 | 0.0 | 0.0 | 0.00 | 0.01 | 0.01 | 65 | 1036.6 |
| 20260504000930 | 44 | 186 | 0.0 | 0.0 | 0.00 | 0.01 | 0.01 | 61 | 1036.5 |
| 20260504000427 | 44 | 183 | 0.0 | 0.0 | 0.00 | 0.01 | 0.01 | 61 | 1036.4 |
| 20260503235924 | 45 | 184 | 0.0 | 0.0 | 0.00 | 0.01 | 0.01 | 59 | 1036.5 |
| 20260503235422 | 46 | 190 | 0.9 | 0.9 | 0.00 | 0.01 | 0.01 | 56 | 1036.3 |
| 20260503234919 | 46 | 182 | 0.9 | 1.7 | 0.00 | 0.01 | 0.01 | 57 | 1036.4 |
| 20260503234417 | 46 | 220 | 2.6 | 2.6 | 0.00 | 0.01 | 0.01 | 56 | 1036.2 |
| 20260503233915 | 46 | 203 | 0.0 | 0.0 | 0.00 | 0.01 | 0.01 | 55 | 1036.3 |
| 20260503233411 | 47 | 270 | 1.7 | 1.7 | 0.00 | 0.01 | 0.01 | 54 | 1036.0 |
| 20260503232908 | 47 | 192 | 0.0 | 0.0 | 0.00 | 0.01 | 0.01 | 55 | 1036.0 |
| 20260503232405 | 47 | 233 | 2.6 | 2.6 | 0.00 | 0.01 | 0.01 | 54 | 1036.0 |
| 20260503231902 | 47 | 197 | 0.9 | 0.9 | 0.00 | 0.01 | 0.01 | 54 | 1035.9 |